Location: Newark
(48.5667°N, 12.8167°E)
Time: 10:15:09
(UTC+00:00)

NOAA 15 - Visible Passes

Search period start: 12 November 2019 00:00
Search period end: 22 November 2019 00:00
Orbit: 798 x 813 km, 98.7° (Epoch: 11 November)

Date Brightness Start Highest point End Pass type
(mag) Time Alt. Az. Time Alt. Az. Time Alt. Az.
12 Nov 7.3 05:36:44 10° NE 05:40:58 24° E 05:45:09 10° SE visible
12 Nov 4.7 17:00:07 10° SE 17:05:17 55° ENE 17:10:27 10° N visible
12 Nov 6.7 18:41:07 10° SW 18:45:22 24° W 18:49:39 10° NW visible
13 Nov 7.6 05:12:39 10° NE 05:15:34 15° E 05:18:28 10° ESE visible
13 Nov 5.2 16:35:34 10° SE 16:40:21 35° ENE 16:45:08 10° N visible
13 Nov 6.0 18:15:10 10° SSW 18:20:05 38° W 18:25:02 10° NNW visible
14 Nov 5.6 16:11:23 10° ESE 16:15:30 24° ENE 16:19:38 10° N visible
14 Nov 5.1 17:49:38 10° S 17:54:53 61° WSW 18:00:09 10° NNW visible
15 Nov 4.5 17:24:28 10° SSE 17:29:47 85° ENE 17:35:06 10° NNW visible
15 Nov 7.3 19:07:12 10° WSW 19:10:14 15° W 19:13:17 10° NW visible
16 Nov 7.3 05:36:14 10° NE 05:40:25 24° E 05:44:35 10° SE visible
16 Nov 4.7 16:59:37 10° SE 17:04:45 54° ENE 17:09:55 10° N visible
16 Nov 6.7 18:40:35 10° SSW 18:44:50 24° W 18:49:09 10° NW visible
17 Nov 7.6 05:12:09 10° NE 05:15:02 15° E 05:17:52 10° ESE visible
17 Nov 5.2 16:35:05 10° SE 16:39:50 35° ENE 16:44:36 10° N visible
17 Nov 5.9 18:14:38 10° SSW 18:19:33 39° W 18:24:30 10° NNW visible
18 Nov 5.7 16:10:54 10° ESE 16:14:59 23° ENE 16:19:05 10° N visible
18 Nov 5.0 17:49:07 10° S 17:54:22 62° WSW 17:59:37 10° NNW visible
19 Nov 4.5 17:23:57 10° SSE 17:29:15 84° ENE 17:34:34 10° NNW visible
19 Nov 7.3 19:06:38 10° WSW 19:09:42 15° W 19:12:47 10° NW visible
20 Nov 7.3 05:35:43 10° NE 05:39:54 23° E 05:44:01 10° SE visible
20 Nov 4.7 16:59:06 10° SE 17:04:15 53° ENE 17:09:23 10° N visible
20 Nov 6.7 18:40:02 10° SSW 18:44:19 25° W 18:48:38 10° NW visible
21 Nov 7.6 05:11:41 10° NE 05:14:29 14° E 05:17:16 10° ESE visible
21 Nov 5.2 16:34:34 10° SE 16:39:19 34° ENE 16:44:03 10° N visible
21 Nov 5.9 18:14:06 10° SSW 18:19:01 39° W 18:23:59 10° NNW visible
